KD0RII Weather Reports


time (UTC)temp
C
wind
direction
speed
KPH
gust
KPH
rain 1hr
cm
rain 24hr
cm
rain mn
cm
humidity
%
barometer
mb
20260505112247 10 86 0.0 1.6 0.00 1.45 1.45 80 1010.6
20260505111746 10 84 3.2 9.7 0.00 1.45 1.45 80 1011.0
20260505111242 10 92 0.0 0.0 0.00 1.45 1.45 80 1011.0
20260505110738 9 37 1.6 1.6 0.00 1.45 1.45 80 1011.3
20260505110237 10 95 0.0 0.0 0.00 1.45 1.45 80 1011.1
20260505102212 10 70 1.6 1.6 0.00 1.45 1.45 79 1010.2
20260505101710 10 81 0.0 0.0 0.00 1.45 1.45 78 1010.3
20260505101206 10 89 0.0 0.0 0.00 1.45 1.45 78 1010.2
20260505100702 10 84 0.0 0.0 0.00 1.45 1.45 79 1010.0
20260505100200 10 61 0.0 1.6 0.00 1.45 1.45 79 1009.7
20260505095655 10 105 0.0 0.0 0.00 1.45 1.45 79 1009.6
20260505095153 10 84 3.2 3.2 0.00 1.45 1.45 78 1009.7
20260505094649 10 88 4.8 9.7 0.00 1.45 1.45 77 1009.8
20260505094145 10 65 0.0 1.6 0.00 1.45 1.45 77 1009.7
20260505093642 10 70 0.0 0.0 0.00 1.45 1.45 76 1009.8
20260505093139 10 90 4.8 6.4 0.00 1.45 1.45 75 1009.8
20260505092636 10 49 1.6 1.6 0.00 1.45 1.45 76 1009.3
20260505092135 10 43 8.0 11.3 0.00 1.45 1.45 76 1009.1
20260505091631 10 91 0.0 0.0 0.00 1.45 1.45 76 1009.3
20260505091129 10 101 3.2 3.2 0.00 1.45 1.45 75 1009.5
20260505090627 10 78 0.0 1.6 0.00 1.45 1.45 77 1009.5
20260505090125 10 58 1.6 3.2 0.00 1.45 1.45 78 1009.1
20260505085622 10 98 0.0 1.6 0.00 1.45 1.45 77 1009.4
20260505085120 10 74 0.0 1.6 0.00 1.45 1.45 80 1009.1
20260505084617 10 89 3.2 4.8 0.00 1.45 1.45 80 1009.0
20260505084116 10 86 0.0 1.6 0.00 1.45 1.45 82 1008.8
20260505083613 10 81 1.6 1.6 0.00 1.45 1.45 81 1008.9
20260505083109 10 21 1.6 4.8 0.00 1.45 1.45 81 1008.5
20260505082605 10 77 3.2 9.7 0.00 1.45 1.45 82 1008.5
20260505082102 10 92 1.6 3.2 0.00 1.45 1.45 82 1008.5
20260505081558 10 98 3.2 4.8 0.00 1.45 1.45 82 1008.1
20260505081056 10 65 8.0 14.5 0.00 1.45 1.45 83 1008.0
20260505080552 10 86 0.0 0.0 0.00 1.45 1.45 83 1008.0
20260505080049 10 22 9.7 16.1 0.00 1.45 1.45 83 1007.8
20260505075544 10 64 3.2 3.2 0.00 1.45 1.45 85 1008.0
20260505075042 10 41 9.7 12.9 0.00 1.45 1.45 86 1008.0
20260505074538 10 32 6.4 11.3 0.00 1.45 1.45 88 1007.7
20260505074036 10 17 9.7 14.5 0.00 1.45 1.45 89 1007.7
20260505073533 10 93 3.2 3.2 0.00 1.45 1.45 89 1007.4
20260505073032 11 39 3.2 4.8 0.18 1.45 1.45 90 1007.2
20260505072526 11 50 8.0 11.3 0.18 1.45 1.45 91 1006.3
20260505072023 11 100 1.6 3.2 0.00 1.42 1.42 91 1006.3
20260505071519 11 67 1.6 4.8 0.00 1.42 1.42 91 1006.4
20260505071017 11 94 0.0 0.0 0.00 1.42 1.42 91 1006.5
20260505070514 11 80 4.8 4.8 0.00 1.42 1.42 90 1006.6
20260505070010 11 46 1.6 3.2 0.00 1.42 1.42 90 1007.0
20260505065506 11 73 4.8 6.4 0.13 1.42 1.42 90 1007.2
20260505065003 11 42 11.3 14.5 0.30 1.42 1.42 90 1007.4
20260505064459 11 27 11.3 14.5 0.30 1.40 1.40 90 1007.4
20260505063958 11 26 9.7 14.5 0.48 1.37 1.37 90 1007.3
20260505063455 11 69 3.2 9.7 0.66 1.35 1.35 89 1008.5
20260505062951 11 52 3.2 11.3 1.68 1.32 1.32 89 1009.0
20260505062448 12 27 14.5 16.1 6.65 1.24 1.24 88 1009.3
20260505061944 12 15 12.9 16.1 5.77 0.97 0.97 85 1009.8
20260505061443 16 304 11.3 20.9 0.61 0.10 0.10 74 1010.7
20260505060940 17 355 12.9 16.1 0.00 0.00 0.00 60 1008.4
20260505060437 18 83 4.8 11.3 0.00 0.00 0.00 55 1007.2
20260505055933 20 37 12.9 17.7 0.00 0.00 0.00 48 1006.5
20260505055429 20 77 9.7 16.1 0.00 0.00 0.00 51 1006.0
20260505054926 20 17 6.4 9.7 0.00 0.00 0.00 74 1005.5
20260505054424 20 73 1.6 1.6 0.00 0.00 0.00 77 1005.2
20260505053921 20 88 0.0 0.0 0.00 0.00 0.00 76 1005.1
20260505053418 19 69 0.0 0.0 0.00 0.00 0.00 77 1005.0
20260505052915 19 80 0.0 0.0 0.00 0.00 0.00 77 1005.1
20260505052412 18 81 0.0 0.0 0.00 0.00 0.00 78 1004.9
20260505051909 18 84 0.0 0.0 0.00 0.00 0.00 79 1004.6
20260505051406 18 89 0.0 0.0 0.00 0.00 0.00 79 1004.6
20260505050905 18 93 0.0 0.0 0.00 0.00 0.00 80 1004.7
20260505050402 18 93 0.0 0.0 0.00 0.00 0.00 80 1004.4
20260505041330 18 95 0.0 0.0 0.00 0.00 0.00 82 1004.6
20260505040827 18 91 0.0 0.0 0.00 0.00 0.00 83 1004.5
20260505040325 18 94 0.0 0.0 0.00 0.00 0.00 83 1004.8
20260505035821 18 90 0.0 0.0 0.00 0.00 0.00 83 1004.8
20260505035317 18 91 0.0 0.0 0.00 0.00 0.00 83 1004.9
20260505034815 18 85 0.0 1.6 0.00 0.00 0.00 84 1005.0
20260505034311 18 97 0.0 0.0 0.00 0.00 0.00 84 1005.2
20260505033808 17 93 0.0 0.0 0.00 0.00 0.00 84 1005.1
20260505033305 17 93 0.0 0.0 0.00 0.00 0.00 84 1005.2
20260505032803 17 92 0.0 0.0 0.00 0.00 0.00 83 1005.4
20260505032253 17 92 0.0 0.0 0.00 0.00 0.00 82 1005.0
20260505031750 17 92 0.0 0.0 0.00 0.00 0.00 82 1005.1
20260505031246 17 92 0.0 0.0 0.00 0.00 0.00 81 1005.2
20260505030744 17 92 0.0 0.0 0.00 0.00 0.00 81 1005.1
20260505030240 18 92 0.0 0.0 0.00 0.00 0.00 80 1005.1
20260505025735 18 92 0.0 0.0 0.00 0.00 0.00 79 1004.8
20260505025234 18 92 0.0 0.0 0.00 0.00 0.00 79 1005.0
20260505024732 18 92 0.0 0.0 0.00 0.00 0.00 78 1004.8
20260505024229 18 92 0.0 0.0 0.00 0.00 0.00 78 1004.9
20260505023726 18 92 0.0 0.0 0.00 0.00 0.00 77 1004.8
20260505023223 19 91 0.0 0.0 0.00 0.00 0.00 76 1004.3
20260505022721 19 90 0.0 0.0 0.00 0.00 0.00 75 1004.4
20260505022217 20 90 0.0 0.0 0.00 0.00 0.00 75 1004.4
20260505021715 20 90 0.0 0.0 0.00 0.00 0.00 74 1004.3
20260505021212 20 90 0.0 0.0 0.00 0.00 0.00 73 1004.2
20260505020707 20 91 0.0 0.0 0.00 0.00 0.00 72 1003.9
20260505020203 20 91 0.0 0.0 0.00 0.00 0.00 71 1003.8
20260505015700 21 90 0.0 0.0 0.00 0.00 0.00 70 1004.0
20260505015157 21 91 0.0 0.0 0.00 0.00 0.00 70 1004.1
20260505014654 21 90 0.0 0.0 0.00 0.00 0.00 69 1003.8
20260505014150 21 95 0.0 0.0 0.00 0.00 0.00 68 1003.9
20260505013648 21 92 0.0 0.0 0.00 0.00 0.00 68 1003.8
20260505013145 22 93 0.0 0.0 0.00 0.00 0.00 67 1003.7
20260505012643 22 94 0.0 0.0 0.00 0.00 0.00 66 1003.9
20260505012140 22 93 0.0 0.0 0.00 0.00 0.00 64 1003.6
20260505011636 23 105 0.0 0.0 0.00 0.00 0.00 63 1003.6
20260505011133 23 116 1.6 1.6 0.00 0.00 0.00 62 1003.5
20260505010633 23 138 3.2 4.8 0.00 0.00 0.00 61 1003.3
20260505010130 23 76 0.0 0.0 0.00 0.00 0.00 61 1003.2
20260505005626 23 105 0.0 0.0 0.00 0.00 0.00 60 1003.3
20260505005124 24 92 0.0 0.0 0.00 0.00 0.00 60 1003.0
20260505004621 24 93 0.0 0.0 0.00 0.00 0.00 59 1003.2
20260505004117 25 144 1.6 3.2 0.00 0.00 0.00 57 1002.9
20260505003615 25 128 0.0 0.0 0.00 0.00 0.00 57 1003.0
20260505003112 25 91 3.2 3.2 0.00 0.00 0.00 56 1002.9
20260505002608 25 99 0.0 0.0 0.00 0.00 0.00 56 1002.9
20260505002102 25 121 1.6 1.6 0.00 0.00 0.00 55 1003.0
20260505001558 25 112 1.6 1.6 0.00 0.00 0.00 55 1002.9
20260505001055 25 195 3.2 4.8 0.00 0.00 0.00 54 1003.0
20260505000552 25 146 0.0 1.6 0.00 0.00 0.00 55 1003.0
20260505000050 25 108 3.2 4.8 0.00 0.00 0.00 55 1002.9
20260504235546 26 93 0.0 0.0 0.00 0.00 0.00 55 1002.8
20260504235043 26 118 0.0 1.6 0.00 0.00 0.00 53 1002.9
20260504234540 26 97 3.2 3.2 0.00 0.00 0.00 53 1003.1
20260504234037 26 94 0.0 1.6 0.00 0.00 0.00 53 1003.1
20260504233532 26 93 0.0 0.0 0.00 0.00 0.00 52 1003.2
20260504233029 27 107 0.0 0.0 0.00 0.00 0.00 52 1003.0
20260504232526 27 143 1.6 3.2 0.00 0.00 0.00 51 1003.2
20260504232024 27 113 0.0 1.6 0.00 0.00 0.00 52 1003.2
20260504231520 27 84 0.0 0.0 0.00 0.00 0.00 51 1003.1
20260504231016 28 66 1.6 1.6 0.00 0.00 0.00 47 1003.1
20260504230513 28 96 0.0 0.0 0.00 0.00 0.00 51 1003.2
20260504230007 28 97 0.0 0.0 0.00 0.00 0.00 47 1003.2
20260504225503 29 90 0.0 0.0 0.00 0.00 0.00 46 1003.1
20260504225000 30 80 0.0 0.0 0.00 0.00 0.00 47 1003.1
20260504224456 29 87 0.0 0.0 0.00 0.00 0.00 43 1003.0
20260504223953 29 85 0.0 0.0 0.00 0.00 0.00 42 1002.9
20260504223450 28 94 0.0 0.0 0.00 0.00 0.00 46 1003.1
20260504222946 28 85 0.0 0.0 0.00 0.00 0.00 45 1002.9
20260504222444 28 88 0.0 1.6 0.00 0.00 0.00 45 1002.9
20260504221941 28 86 0.0 0.0 0.00 0.00 0.00 45 1003.1
20260504221438 28 84 0.0 0.0 0.00 0.00 0.00 44 1003.0
20260504220934 28 96 0.0 0.0 0.00 0.00 0.00 46 1003.0
20260504220431 28 99 0.0 0.0 0.00 0.00 0.00 45 1003.1
20260504215928 29 97 0.0 0.0 0.00 0.00 0.00 42 1002.9
20260504215425 30 129 1.6 3.2 0.00 0.00 0.00 40 1003.1
20260504214921 30 108 1.6 1.6 0.00 0.00 0.00 44 1003.0
20260504214418 30 151 1.6 3.2 0.00 0.00 0.00 42 1003.0
20260504213915 29 111 1.6 3.2 0.00 0.00 0.00 43 1003.3
20260504213411 30 142 1.6 3.2 0.00 0.00 0.00 42 1003.2
20260504212909 30 96 0.0 0.0 0.00 0.00 0.00 44 1003.3
20260504212404 28 102 0.0 0.0 0.00 0.00 0.00 45 1003.5
20260504211902 28 155 0.0 0.0 0.00 0.00 0.00 46 1003.3
20260504211358 28 96 0.0 0.0 0.00 0.00 0.00 45 1003.3
20260504210855 27 108 0.0 0.0 0.00 0.00 0.00 47 1003.6
20260504210351 27 95 0.0 0.0 0.00 0.00 0.00 45 1003.6
20260504205849 27 154 0.0 1.6 0.00 0.00 0.00 44 1003.6
20260504205347 27 125 0.0 1.6 0.00 0.00 0.00 46 1003.9
20260504204844 28 93 0.0 1.6 0.00 0.00 0.00 43 1004.0
20260504204343 28 110 0.0 0.0 0.00 0.00 0.00 43 1003.9
20260504203843 28 125 1.6 3.2 0.00 0.00 0.00 42 1004.1
20260504203339 28 102 3.2 4.8 0.00 0.00 0.00 44 1004.0
20260504202835 28 118 0.0 1.6 0.00 0.00 0.00 45 1004.1
20260504202332 28 110 0.0 0.0 0.00 0.00 0.00 43 1004.1
20260504201828 29 90 0.0 0.0 0.00 0.00 0.00 43 1004.3
20260504201326 29 65 1.6 3.2 0.00 0.00 0.00 41 1004.2
20260504200823 30 192 3.2 3.2 0.00 0.00 0.00 43 1004.3
20260504200320 28 109 1.6 1.6 0.00 0.00 0.00 43 1004.5
20260504195816 28 128 3.2 4.8 0.00 0.00 0.00 41 1004.5
20260504195312 28 133 3.2 4.8 0.00 0.00 0.00 41 1004.2
20260504194809 28 142 1.6 1.6 0.00 0.00 0.00 42 1004.4
20260504194305 28 106 3.2 4.8 0.00 0.00 0.00 41 1004.5
20260504193801 28 101 3.2 4.8 0.00 0.00 0.00 43 1004.5
20260504193259 28 171 4.8 4.8 0.00 0.00 0.00 42 1004.5
20260504192757 28 132 0.0 1.6 0.00 0.00 0.00 46 1004.6
20260504192254 28 98 0.0 0.0 0.00 0.00 0.00 45 1004.6
20260504191753 28 156 3.2 3.2 0.00 0.00 0.00 48 1004.6
20260504191249 28 115 1.6 1.6 0.00 0.00 0.00 46 1004.6
20260504190745 28 156 3.2 3.2 0.00 0.00 0.00 43 1004.4
20260504190242 28 122 0.0 1.6 0.00 0.00 0.00 47 1004.6
20260504185738 27 200 3.2 4.8 0.00 0.00 0.00 43 1004.8
20260504185235 27 65 3.2 4.8 0.00 0.00 0.00 43 1004.7
20260504184732 28 15 1.6 3.2 0.00 0.00 0.00 43 1004.7
20260504184227 28 131 3.2 3.2 0.00 0.00 0.00 43 1004.7
20260504183723 28 99 3.2 3.2 0.00 0.00 0.00 47 1004.9
20260504183221 28 287 3.2 4.8 0.00 0.00 0.00 43 1005.0
20260504182718 28 281 6.4 9.7 0.00 0.00 0.00 43 1004.9
20260504182215 28 116 3.2 4.8 0.00 0.00 0.00 43 1004.8
20260504181713 28 140 4.8 9.7 0.00 0.00 0.00 41 1004.8
20260504181210 28 175 3.2 3.2 0.00 0.00 0.00 41 1004.9
20260504180709 28 172 3.2 3.2 0.00 0.00 0.00 42 1004.8
20260504180208 28 89 1.6 3.2 0.00 0.00 0.00 43 1004.8
20260504175704 28 144 1.6 1.6 0.00 0.00 0.00 45 1005.1
20260504175201 27 129 1.6 3.2 0.00 0.00 0.00 44 1004.9
20260504174659 27 219 4.8 9.7 0.00 0.00 0.00 42 1005.2
20260504174156 27 173 4.8 4.8 0.00 0.00 0.00 42 1005.1
20260504173653 27 156 1.6 1.6 0.00 0.00 0.00 43 1005.2
20260504173150 27 143 6.4 9.7 0.00 0.00 0.00 42 1004.9
20260504172647 26 106 4.8 6.4 0.00 0.00 0.00 43 1004.8
20260504172143 26 218 4.8 6.4 0.00 0.00 0.00 45 1005.1
20260504171639 26 176 0.0 1.6 0.00 0.00 0.00 45 1005.3
20260504171137 26 117 3.2 4.8 0.00 0.00 0.00 46 1005.1
20260504170633 26 114 0.0 1.6 0.00 0.00 0.00 47 1005.1
20260504170131 26 104 1.6 3.2 0.00 0.00 0.00 44 1005.2
20260504151016 23 68 1.6 3.2 0.00 0.00 0.00 50 1005.4
20260504150513 23 88 4.8 6.4 0.00 0.00 0.00 51 1005.7
20260504140934 18 158 3.2 4.8 0.00 0.00 0.00 61 1005.3
20260504140430 18 157 3.2 3.2 0.00 0.00 0.00 60 1005.4
20260504130354 17 178 3.2 3.2 0.00 0.00 0.00 62 1005.5
20260504120317 16 127 4.8 6.4 0.00 0.00 0.00 63 1005.4